DELTA 1 DEB

Satellite information

Favourite Embed

Satellite Type and Status

DEBRISIN ORBIT

Key statistics

Satellite DELTA 1 DEB at a glance.

Uptime

19285

Days in orbit

Revolutions

≈ 14.0

Per day

Orbit

SSO

Sun Synchronous Orbit

Inclination

98.0

Latest

Satellite identification and parameters

Extended collection of information and parameters for DELTA 1 DEB.

Object identification

Identified? True

Debris? True

Object name: DELTA 1 DEB

International designator: 1972-058V

Object number (NORAD): 7849

Object ID (CCSDS): 7849

Country: UNITED STATES OF AMERICA (US)

Current information (Y/N): Y

RCS size: MEDIUM

Orbital parameters

Period: 102.752 minutes

Inclination: 98.0458 deg

SMA: 7266.974 km

Apoapsis: 1126.49 km

Periapsis: 651.187 km

RAAN: 255.1889 deg

Eccentricy: 0.032703

Argument of periapsis: 123.3378 deg

Mean anomaly: 239.9552 deg

Mean motion: 14.01433162 rev/day

Mean motion (dot): 0.00003137 rev/day2

B* drag term: 0.0013159 1/REarth

Two-line elements (TLE)

Creation date: May 10, 2025, 5:27 p.m.

Reference frame: TEME

Reference center: EARTH

Epoch: May 10, 2025, 3:12 p.m. UTC

TLE line 0: 0 DELTA 1 DEB

TLE line 1: 1 07849U 72058V 25130.63340324 .00003137 00000-0 13159-2 0 9991

TLE line 2: 2 07849 98.0458 255.1889 0327030 123.3378 239.9552 14.01433162496801

Live tracking on map

Real-time ground track for satellite DELTA 1 DEB.

In-orbit conjunctions

A list of the most updated potential collisions computed for object DELTA 1 DEB.

Target Orbit TCA Probability of collision Miss distance Type
METEOR 1-5 LEO 2025-02-18 18:33:39 0.0004317607 350.0 (m) PAYLOAD

Associated space launch

Earth observation satellite

DELTA 1 DEB was lifted into orbit during the mission ‘Delta 0900 | Landsat 1’, on board a Delta 0900 space rocket.

The launch took place on July 23, 1972, 6:06 p.m. from Space Launch Complex 2W.

For more information about the launch, click the button.

Launch to space Delta 0900 | Landsat 1
Delta 0900 | Landsat 1

Agency: N/A

Status: Launch Successful

Launch date: July 23, 1972, 6:06 p.m. UTC

Rocket: Delta 0900

Launch pad: Space Launch Complex 2W

Location: Vandenberg SFB, CA, USA

...

Latest news about this satellite

There are no fresh news available about this satellite. Check back as we update our databases every day.


Newsletter sign-up

Weekly statistics, charts and insights to help you stay on top of the space industry.